QPF
0.00 0.00 0.00 0.00 0.00 0.00 0.00 0.00 0.00 0.00 0.00 0.00 0.01 0.01 0.04 0.12 0.03 0.02 0.00 0.00 0.00 0.00 0.00 0.00 0.00 0.00 0.00 0.00 0.00 0.00 0.00 0.00 0.00 0.00 0.00 0.00 0.00 0.00 0.00 0.00 0.00 0.00 0.00 0.01
0.00 0.00 0.00 0.00 0.00 0.00 0.00 0.00 0.00 0.00 0.00 0.00 0.01 0.04 0.03 0.07 0.05 0.03 0.00 0.00 0.00 0.01 0.00 0.00 0.00 0.00 0.00 0.00 0.00 0.00 0.00 0.00 0.00 0.00 0.00 0.00 0.00 0.00 0.00 0.00 0.00 0.00 0.00 0.00
0.00 0.00 0.00 0.00 0.00 0.00 0.00 0.00 0.00 0.00 0.01 0.03 0.01 0.00 0.02 0.03 0.11 0.09 0.09 0.02 0.00 0.00 0.00 0.00 0.00 0.00 0.00 0.00 0.00 0.00 0.00 0.00 0.00 0.00 0.00 0.00 0.00 0.00 0.00 0.00 0.00 0.00 0.00 0.00
0.00 0.00 0.00 0.00 0.00 0.00 0.00 0.00 0.00 0.00 0.00 0.00 0.00 0.00 0.00 0.00 0.01 0.14 0.10 0.07 0.02 0.00 0.00 0.00 0.00 0.00 0.00 0.00 0.00 0.00 0.00 0.00 0.01 0.01 0.00 0.00 0.00 0.00 0.00 0.00 0.00 0.03 0.00 0.00
0.00 0.00 0.00 0.00 0.00 0.00 0.00 0.00 0.00 0.00 0.00 0.00 0.01 0.01 0.00 0.00 0.00 0.02 0.03 0.01 0.02 0.03 0.00 0.00 0.00 0.01 0.00 0.00 0.00 0.00 0.00 0.00 0.00 0.01 0.02 0.00 0.00 0.00 0.00 0.00 0.00 0.01 0.01 0.01
0.00 0.00 0.00 0.00 0.00 0.00 0.00 0.00 0.00 0.00 0.00 0.00 0.01 0.00 0.00 0.00 0.00 0.00 0.00 0.01 0.00 0.01 0.00 0.00 0.01 0.00 0.00 0.00 0.00 0.00 0.00 0.00 0.00 0.00 0.01 0.01 0.01 0.01 0.03 0.02 0.01 0.02 0.01 0.00
0.00 0.00 0.00 0.00 0.00 0.00 0.00 0.00 0.00 0.00 0.00 0.00 0.00 0.00 0.00 0.00 0.00 0.00 0.00 0.01 0.00 0.01 0.00 0.00 0.00 0.00 0.00 0.00 0.00 0.00 0.00 0.00 0.00 0.00 0.00 0.01 0.01 0.02 0.01 0.00 0.00 0.00 0.00 0.00
0.00 0.00 0.00 0.00 0.00 0.00 0.00 0.00 0.00 0.00 0.00 0.00 0.00 0.00 0.00 0.00 0.00 0.00 0.00 0.00 0.00 0.01 0.01 0.00 0.00 0.00 0.00 0.00 0.00 0.00 0.00 0.00 0.00 0.00 0.00 0.00 0.01 0.01 0.00 0.00 0.01 0.00 0.01 0.00
0.00 0.00 0.00 0.00 0.00 0.00 0.00 0.00 0.00 0.00 0.00 0.00 0.00 0.00 0.00 0.00 0.01 0.00 0.00 0.00 0.00 0.02 0.01 0.00 0.00 0.00 0.00 0.01 0.00 0.00 0.00 0.00 0.00 0.00 0.01 0.00 0.00 0.00 0.00 0.00 0.00 0.00 0.01 0.01
0.00 0.00 0.00 0.00 0.00 0.00 0.00 0.00 0.00 0.00 0.00 0.00 0.00 0.00 0.00 0.00 0.00 0.00 0.00 0.00 0.00 0.00 0.00 0.00 0.00 0.00 0.00 0.00 0.00 0.00 0.00 0.00 0.00 0.00 0.00 0.00 0.00 0.00 0.00 0.00 0.00 0.00 0.00 0.02
0.00 0.00 0.00 0.00 0.00 0.00 0.00 0.00 0.00 0.00 0.00 0.00 0.00 0.00 0.00 0.00 0.00 0.00 0.00 0.00 0.00 0.00 0.00 0.00 0.00 0.00 0.00 0.00 0.00 0.00 0.00 0.00 0.00 0.00 0.00 0.00 0.00 0.00 0.00 0.00 0.00 0.00 0.00 0.00
0.00 0.00 0.00 0.00 0.00 0.00 0.00 0.00 0.00 0.00 0.00 0.00 0.00 0.00 0.00 0.00 0.00 0.01 0.01 0.00 0.00 0.00 0.00 0.00 0.00 0.00 0.00 0.00 0.00 0.00 0.00 0.00 0.00 0.00 0.00 0.00 0.00 0.00 0.00 0.00 0.00 0.00 0.00 0.00
0.00 0.00 0.00 0.00 0.00 0.00 0.00 0.00 0.00 0.00 0.00 0.00 0.00 0.00 0.00 0.00 0.02 0.03 0.04 0.03 0.00 0.00 0.00 0.00 0.00 0.00 0.00 0.00 0.00 0.00 0.00 0.00 0.00 0.00 0.00 0.00 0.00 0.00 0.00 0.00 0.00 0.00 0.00 0.00
0.00 0.00 0.00 0.00 0.00 0.00 0.00 0.00 0.00 0.00 0.00 0.00 0.00 0.00 0.00 0.00 0.00 0.00 0.01 0.02 0.01 0.00 0.00 0.00 0.00 0.00 0.00 0.00 0.00 0.00 0.00 0.00 0.00 0.00 0.00 0.00 0.00 0.00 0.00 0.00 0.00 0.00 0.00 0.00
0.00 0.00 0.00 0.00 0.00 0.00 0.00 0.00 0.00 0.00 0.00 0.00 0.00 0.00 0.00 0.00 0.00 0.00 0.00 0.02 0.02 0.00 0.00 0.00 0.00 0.00 0.00 0.00 0.00 0.00 0.00 0.00 0.00 0.00 0.00 0.00 0.00 0.00 0.00 0.00 0.00 0.00 0.00 0.00
0.00 0.00 0.00 0.00 0.00 0.00 0.00 0.00 0.00 0.00 0.00 0.00 0.00 0.00 0.00 0.00 0.00 0.00 0.00 0.00 0.00 0.00 0.00 0.00 0.00 0.00 0.00 0.00 0.00 0.00 0.00 0.00 0.00 0.00 0.00 0.00 0.00 0.00 0.00 0.00 0.00 0.00 0.00 0.00
0.00 0.00 0.00 0.00 0.00 0.00 0.00 0.00 0.00 0.00 0.00 0.00 0.00 0.00 0.00 0.00 0.00 0.00 0.00 0.01 0.00 0.01 0.00 0.00 0.00 0.00 0.00 0.00 0.00 0.00 0.00 0.00 0.00 0.00 0.00 0.00 0.00 0.00 0.00 0.00 0.00 0.00 0.00 0.01
0.00 0.00 0.00 0.00 0.00 0.00 0.00 0.00 0.00 0.00 0.00 0.00 0.00 0.00 0.00 0.00 0.00 0.00 0.01 0.03 0.04 0.05 0.02 0.00 0.00 0.00 0.00 0.00 0.00 0.00 0.00 0.00 0.00 0.00 0.00 0.00 0.00 0.00 0.00 0.00 0.00 0.00 0.00 0.01
0.00 0.00 0.00 0.00 0.00 0.00 0.00 0.00 0.00 0.00 0.00 0.00 0.00 0.00 0.00 0.00 0.00 0.00 0.00 0.00 0.02 0.07 0.05 0.03 0.00 0.00 0.00 0.00 0.00 0.00 0.00 0.00 0.00 0.00 0.00 0.00 0.00 0.00 0.00 0.02 0.04 0.04 0.05 0.08
0.00 0.00 0.00 0.00 0.00 0.00 0.00 0.00 0.00 0.00 0.00 0.00 0.00 0.00 0.00 0.00 0.00 0.00 0.00 0.00 0.00 0.03 0.08 0.07 0.01 0.00 0.00 0.00 0.00 0.00 0.00 0.00 0.00 0.00 0.00 0.02 0.11 0.08 0.08 0.07 0.08 0.07 0.10 0.06
0.00 0.00 0.00 0.00 0.00 0.00 0.00 0.00 0.00 0.00 0.04 0.04 0.01 0.00 0.01 0.00 0.00 0.00 0.00 0.02 0.02 0.01 0.07 0.06 0.03 0.00 0.00 0.00 0.00 0.00 0.00 0.00 0.01 0.02 0.05 0.11 0.04 0.04 0.04 0.05 0.04 0.02 0.00 0.00
0.00 0.00 0.00 0.00 0.01 0.00 0.00 0.00 0.00 0.04 0.10 0.05 0.02 0.00 0.01 0.00 0.00 0.00 0.00 0.02 0.07 0.06 0.06 0.02 0.06 0.01 0.00 0.00 0.00 0.00 0.06 0.08 0.05 0.04 0.03 0.02 0.00 0.00 0.00 0.00 0.00 0.00 0.00 0.00
0.00 0.00 0.00 0.00 0.01 0.01 0.00 0.00 0.02 0.03 0.04 0.03 0.01 0.01 0.01 0.02 0.01 0.02 0.03 0.01 0.01 0.03 0.02 0.02 0.05 0.00 0.00 0.00 0.00 0.08 0.06 0.03 0.04 0.02 0.01 0.00 0.00 0.00 0.00 0.00 0.00 0.00 0.00 0.00
0.00 0.00 0.00 0.00 0.00 0.00 0.00 0.00 0.00 0.02 0.04 0.03 0.02 0.01 0.01 0.02 0.03 0.04 0.03 0.03 0.03 0.02 0.03 0.03 0.00 0.01 0.03 0.03 0.04 0.05 0.02 0.02 0.00 0.00 0.00 0.00 0.00 0.00 0.00 0.00 0.00 0.00 0.00 0.00
0.00 0.00 0.00 0.00 0.00 0.00 0.00 0.00 0.00 0.00 0.00 0.01 0.01 0.00 0.00 0.01 0.03 0.03 0.05 0.02 0.00 0.00 0.00 0.03 0.05 0.06 0.05 0.02 0.02 0.02 0.01 0.00 0.00 0.00 0.00 0.00 0.00 0.00 0.00 0.00 0.00 0.00 0.00 0.00
0.00 0.00 0.00 0.00 0.00 0.00 0.00 0.00 0.00 0.00 0.00 0.00 0.00 0.00 0.00 0.00 0.03 0.04 0.05 0.03 0.00 0.00 0.00 0.03 0.08 0.03 0.01 0.00 0.00 0.00 0.00 0.00 0.00 0.00 0.00 0.00 0.00 0.00 0.00 0.00 0.00 0.00 0.00 0.00
MSLP
1005.87 1006.37 1005.98 1005.30 1004.84 1004.34 1004.01 1004.17 1004.24 1004.25 1004.33 1005.08 1006.13 1007.46 1009.00 1009.65 1009.48 1008.71 1007.94 1007.69 1007.56 1007.98 1008.21 1008.68 1009.23 1010.13 1010.82 1011.56 1012.27 1012.84 1013.44 1013.89 1014.42 1014.96 1015.34 1015.59 1015.74 1015.51 1015.61 1015.55 1015.33 1015.37 1015.43 1015.56
1005.97 1005.66 1004.93 1004.24 1003.76 1003.56 1003.54 1003.75 1004.11 1004.22 1003.74 1004.93 1006.18 1007.77 1008.59 1007.96 1009.60 1010.06 1009.30 1007.67 1007.36 1007.08 1007.86 1008.46 1008.99 1009.71 1010.42 1011.13 1011.97 1012.68 1013.17 1013.67 1014.18 1014.54 1014.87 1015.24 1015.36 1015.38 1015.23 1014.88 1015.19 1015.18 1014.98 1015.19
1005.43 1004.42 1003.87 1003.74 1003.15 1003.06 1002.94 1003.25 1003.54 1003.92 1004.22 1005.02 1006.29 1007.88 1008.45 1009.11 1008.93 1009.10 1008.19 1007.85 1006.84 1006.65 1007.18 1007.66 1008.40 1009.24 1010.07 1010.83 1011.75 1012.32 1012.81 1013.42 1013.82 1014.24 1014.68 1015.03 1015.19 1015.35 1015.26 1015.27 1015.17 1015.24 1015.32 1015.10
1004.41 1003.33 1003.05 1002.62 1002.60 1002.74 1002.74 1002.61 1003.09 1003.93 1005.10 1006.85 1007.81 1008.12 1008.50 1008.98 1009.17 1009.21 1007.08 1007.46 1006.11 1005.63 1006.23 1006.80 1007.66 1008.61 1009.45 1010.33 1011.22 1011.87 1012.39 1013.10 1013.47 1013.92 1014.50 1014.90 1015.14 1015.37 1015.15 1014.98 1015.13 1015.13 1015.41 1015.69
1003.53 1002.86 1002.35 1002.18 1002.17 1002.06 1002.49 1002.47 1003.63 1004.95 1006.73 1007.95 1008.32 1008.47 1008.02 1008.20 1008.47 1007.86 1006.38 1006.23 1005.07 1005.19 1005.26 1005.99 1006.57 1007.72 1008.75 1009.72 1010.86 1011.46 1012.06 1012.70 1013.10 1013.52 1014.09 1014.57 1014.82 1014.90 1014.72 1014.84 1015.21 1015.43 1015.70 1015.58
1003.01 1002.07 1001.90 1001.38 1001.39 1001.58 1002.00 1002.84 1004.36 1006.50 1007.73 1008.23 1007.58 1008.60 1007.22 1007.32 1006.51 1005.57 1003.64 1003.99 1004.40 1004.63 1004.66 1005.42 1005.96 1007.26 1008.33 1009.37 1010.44 1011.23 1011.79 1012.14 1012.87 1013.21 1013.67 1014.14 1014.40 1014.67 1014.89 1015.06 1015.28 1015.65 1015.67 1015.61
1002.88 1001.98 1001.19 1001.03 1001.32 1001.39 1002.00 1003.20 1005.53 1007.92 1008.76 1008.49 1007.21 1007.49 1005.50 1004.94 1004.15 1004.07 1003.29 1002.99 1003.12 1003.74 1004.02 1004.84 1005.86 1006.82 1008.03 1008.97 1009.97 1010.80 1011.43 1012.11 1012.55 1012.92 1013.33 1013.75 1014.06 1014.42 1014.80 1014.95 1015.07 1015.47 1015.67 1015.50
1002.72 1001.62 1000.83 1000.46 1001.03 1001.38 1002.05 1003.08 1004.84 1006.79 1007.91 1007.25 1006.51 1006.32 1004.37 1003.08 1003.27 1003.29 1002.85 1001.57 1002.07 1002.97 1003.40 1004.37 1005.26 1006.10 1007.15 1008.36 1009.52 1010.22 1011.08 1011.74 1012.30 1012.70 1013.01 1013.37 1013.68 1014.03 1014.29 1014.56 1014.75 1014.99 1015.34 1015.19
1001.66 1000.81 999.87 999.74 1000.20 1001.05 1001.74 1002.44 1002.90 1004.57 1004.75 1005.81 1005.99 1005.22 1004.59 1004.27 1004.35 1002.29 1001.52 1001.11 1001.48 1002.50 1003.09 1004.14 1004.99 1005.92 1006.79 1007.96 1008.93 1009.60 1010.62 1011.33 1011.88 1012.25 1012.71 1013.12 1013.41 1013.75 1014.01 1014.17 1014.38 1014.63 1014.76 1014.65
1000.91 1000.85 999.99 999.70 999.93 1000.41 1001.07 1001.54 1002.49 1003.82 1004.95 1005.30 1005.32 1005.37 1005.24 1004.51 1003.35 1002.32 1001.73 1001.74 1001.72 1002.34 1003.35 1004.25 1005.03 1005.84 1006.58 1007.22 1008.30 1009.26 1010.06 1010.73 1011.30 1011.77 1012.28 1012.76 1013.16 1013.55 1013.81 1014.06 1014.25 1014.28 1014.27 1014.43
1000.32 1000.84 1000.50 1000.19 1000.11 1000.43 1000.87 1001.55 1002.27 1003.31 1004.32 1004.72 1004.51 1003.92 1002.27 1002.73 1002.34 1002.30 1002.36 1002.33 1002.39 1002.60 1003.29 1004.12 1004.99 1005.80 1006.43 1007.07 1007.90 1008.83 1009.65 1010.29 1010.89 1011.27 1011.78 1012.34 1012.75 1013.01 1013.39 1013.70 1013.93 1014.05 1014.07 1014.24
1000.57 1000.73 1001.32 1000.70 1000.04 999.90 1000.15 1001.21 1002.32 1003.73 1004.42 1004.40 1004.18 1003.06 1001.80 1002.91 1002.67 1003.15 1003.73 1002.67 1002.70 1002.95 1003.39 1004.17 1004.85 1005.50 1006.35 1007.17 1007.78 1008.36 1009.02 1009.79 1010.37 1010.86 1011.38 1011.86 1012.34 1012.57 1012.88 1013.21 1013.43 1013.68 1013.78 1013.91
1001.69 1001.75 1002.04 1001.53 1000.86 1001.01 1001.08 1001.60 1002.55 1003.79 1004.23 1004.86 1005.24 1003.99 1003.89 1003.83 1003.69 1003.88 1004.92 1005.96 1003.49 1003.20 1003.23 1003.82 1004.61 1005.39 1006.17 1006.93 1007.56 1008.15 1008.63 1009.17 1009.79 1010.32 1010.95 1011.40 1011.85 1012.02 1012.29 1012.58 1012.89 1013.12 1013.33 1013.50
1001.57 1002.63 1002.97 1002.78 1002.29 1001.70 1001.53 1001.91 1002.60 1003.99 1005.23 1005.61 1005.71 1005.66 1005.49 1004.13 1003.96 1005.25 1004.65 1005.69 1003.46 1004.33 1003.65 1004.17 1004.77 1005.00 1005.65 1006.59 1007.25 1007.81 1008.27 1008.71 1009.25 1009.86 1010.38 1010.82 1011.12 1011.26 1011.47 1011.89 1012.26 1012.55 1012.76 1013.01
1001.83 1002.77 1002.86 1002.58 1002.21 1002.02 1002.18 1002.28 1002.67 1003.88 1005.25 1005.81 1005.28 1004.95 1004.81 1005.03 1005.29 1003.57 1004.13 1004.39 1004.07 1004.34 1004.88 1004.33 1004.93 1005.33 1005.51 1006.17 1006.83 1007.33 1007.78 1008.21 1008.75 1009.29 1009.76 1010.12 1010.44 1010.67 1011.07 1011.35 1011.64 1011.89 1012.12 1012.33
1002.44 1003.04 1003.29 1003.20 1002.65 1002.31 1002.13 1002.38 1002.57 1003.03 1004.10 1004.84 1005.27 1005.10 1004.74 1003.75 1003.46 1004.06 1004.93 1004.70 1003.78 1003.94 1004.48 1004.56 1004.87 1005.19 1005.47 1005.79 1006.29 1006.76 1007.22 1007.73 1008.19 1008.67 1009.11 1009.52 1009.97 1010.34 1010.65 1010.96 1011.21 1011.39 1011.59 1011.78
1003.81 1003.83 1004.09 1003.94 1003.32 1002.83 1002.42 1002.35 1002.39 1002.76 1003.44 1004.70 1005.15 1005.12 1004.50 1004.78 1004.39 1003.73 1004.64 1005.21 1005.51 1006.04 1005.70 1004.25 1004.47 1004.66 1004.98 1005.38 1005.70 1006.20 1006.72 1007.29 1007.78 1008.16 1008.67 1009.18 1009.62 1010.00 1010.33 1010.60 1010.93 1011.21 1011.41 1011.45
1004.05 1004.41 1004.57 1004.69 1004.23 1003.65 1002.45 1001.73 1001.79 1002.29 1003.39 1003.52 1003.95 1003.91 1003.90 1004.58 1003.92 1004.28 1003.65 1004.33 1005.44 1005.78 1005.72 1006.22 1003.70 1003.96 1004.19 1004.64 1005.31 1005.74 1006.29 1006.92 1007.55 1008.06 1008.48 1008.95 1009.42 1009.83 1010.15 1010.46 1010.79 1010.97 1011.12 1011.31
1003.84 1004.34 1004.83 1005.13 1004.82 1003.95 1002.81 1002.21 1001.91 1002.03 1003.21 1002.87 1003.65 1003.72 1003.33 1002.84 1003.54 1004.08 1003.56 1003.90 1004.08 1004.80 1005.41 1006.31 1004.52 1003.30 1003.62 1004.08 1004.49 1005.28 1006.10 1006.74 1007.40 1008.03 1008.59 1009.04 1009.38 1009.74 1010.06 1010.29 1010.55 1010.79 1011.01 1011.13
1003.73 1003.83 1004.91 1005.30 1005.31 1004.83 1004.07 1003.58 1002.59 1002.19 1003.37 1004.29 1003.73 1003.17 1002.85 1003.13 1004.17 1004.32 1004.35 1004.19 1003.92 1004.81 1006.67 1006.00 1004.30 1002.48 1002.93 1003.54 1004.15 1004.93 1005.81 1006.61 1007.53 1008.06 1008.54 1008.94 1009.39 1009.65 1010.28 1010.68 1010.66 1010.98 1011.42 1011.70
1004.32 1004.64 1005.03 1005.61 1005.85 1005.52 1005.89 1004.72 1003.09 1004.62 1007.73 1007.48 1004.61 1003.31 1002.95 1003.36 1003.79 1002.91 1003.88 1004.77 1006.26 1006.52 1006.85 1004.98 1003.54 1001.85 1002.11 1002.93 1004.08 1005.01 1005.71 1006.56 1007.25 1007.87 1008.58 1009.16 1009.48 1010.01 1010.37 1010.84 1011.16 1011.43 1011.70 1011.85
1005.42 1005.59 1005.89 1005.99 1006.04 1006.77 1006.56 1006.11 1006.96 1008.59 1008.47 1007.54 1005.42 1004.44 1004.22 1003.78 1003.53 1003.28 1003.78 1003.78 1003.59 1001.53 1003.06 1005.97 1005.51 1002.00 1001.73 1002.44 1003.87 1004.77 1005.55 1006.16 1006.96 1007.80 1008.52 1009.21 1009.68 1010.11 1010.61 1011.00 1011.47 1011.66 1011.92 1012.03
1006.92 1006.97 1007.23 1007.57 1007.64 1007.70 1007.75 1007.78 1008.14 1008.44 1008.62 1008.82 1007.40 1005.38 1005.26 1003.61 1004.16 1003.49 1003.28 1002.37 1002.09 1002.03 1003.59 1003.30 1005.08 1002.63 1002.60 1002.60 1003.59 1004.74 1005.77 1006.22 1007.10 1007.77 1008.51 1009.25 1009.92 1010.33 1010.85 1011.34 1011.75 1012.25 1012.48 1012.72
1007.79 1007.49 1007.86 1007.84 1007.95 1007.54 1007.36 1008.13 1008.07 1007.67 1007.79 1008.35 1007.55 1006.23 1005.53 1003.88 1003.92 1003.83 1003.07 1002.68 1002.17 1001.47 1001.82 1002.55 1002.15 1002.41 1002.97 1003.16 1003.89 1004.96 1006.27 1007.05 1007.29 1008.19 1008.75 1009.33 1009.93 1010.50 1011.02 1011.43 1011.88 1012.49 1012.82 1012.94
1008.78 1008.30 1008.30 1008.25 1008.16 1007.96 1007.97 1007.99 1007.96 1007.90 1007.63 1007.61 1007.03 1006.32 1005.33 1004.26 1003.82 1003.35 1002.57 1001.22 1000.46 1001.41 1001.84 1001.82 1001.97 1002.73 1002.91 1003.58 1004.69 1006.11 1006.67 1007.01 1007.77 1008.42 1009.11 1009.62 1010.01 1010.37 1011.05 1011.76 1012.19 1012.43 1012.80 1012.90
1008.97 1009.05 1009.26 1009.33 1009.29 1009.10 1008.61 1008.23 1007.85 1007.56 1007.30 1006.77 1006.43 1005.89 1004.99 1004.84 1003.98 1003.71 1002.80 1001.36 1000.95 1001.24 1001.44 1001.73 1002.03 1002.45 1003.69 1004.41 1005.63 1006.37 1006.77 1007.24 1008.04 1008.70 1009.15 1009.59 1010.00 1010.26 1010.72 1011.44 1012.19 1012.30 1012.49 1012.91
Thickness
5804 5777 5763 5784 5797 5803 5807 5796 5788 5802 5819 5804 5790 5783 5772 5775 5779 5784 5796 5796 5801 5797 5805 5806 5806 5804 5799 5795 5791 5787 5783 5781 5780 5775 5772 5770 5768 5773 5775 5778 5781 5783 5787 5788
5786 5769 5799 5813 5815 5813 5808 5790 5787 5801 5822 5804 5790 5770 5782 5795 5766 5760 5772 5793 5801 5804 5801 5804 5805 5803 5799 5796 5792 5786 5783 5781 5780 5778 5777 5775 5774 5775 5777 5782 5782 5783 5788 5791
5775 5794 5816 5808 5809 5803 5802 5789 5792 5796 5809 5807 5791 5764 5771 5774 5780 5777 5789 5789 5805 5806 5800 5801 5804 5802 5797 5794 5789 5787 5785 5782 5781 5780 5778 5776 5777 5777 5776 5778 5782 5783 5784 5787
5792 5817 5811 5811 5806 5806 5777 5825 5820 5811 5785 5742 5769 5734 5770 5767 5767 5768 5789 5786 5801 5813 5812 5809 5805 5803 5799 5795 5794 5790 5788 5782 5783 5781 5777 5775 5771 5770 5777 5782 5783 5784 5782 5781
5789 5803 5804 5800 5804 5819 5798 5825 5810 5794 5769 5757 5760 5747 5774 5778 5768 5773 5790 5799 5814 5815 5819 5814 5814 5809 5806 5801 5793 5790 5787 5784 5784 5782 5780 5777 5774 5777 5782 5783 5781 5780 5780 5780
5805 5831 5822 5820 5827 5825 5829 5815 5800 5770 5754 5717 5760 5746 5760 5761 5778 5791 5823 5819 5817 5818 5823 5820 5821 5815 5806 5802 5796 5789 5786 5785 5783 5782 5781 5779 5778 5777 5777 5778 5777 5776 5777 5777
5795 5807 5829 5836 5812 5822 5817 5793 5735 5728 5717 5723 5766 5755 5774 5799 5810 5808 5814 5820 5826 5825 5825 5821 5815 5809 5806 5801 5796 5791 5787 5782 5783 5782 5781 5780 5779 5777 5775 5776 5776 5774 5773 5776
5765 5762 5811 5833 5812 5799 5800 5788 5750 5716 5710 5731 5764 5745 5779 5819 5817 5818 5821 5835 5833 5827 5831 5825 5820 5816 5811 5808 5797 5794 5788 5785 5783 5781 5780 5780 5779 5777 5777 5777 5777 5776 5775 5779
5775 5781 5837 5836 5837 5821 5797 5777 5809 5779 5791 5763 5764 5788 5793 5796 5784 5829 5838 5841 5834 5826 5828 5823 5822 5817 5814 5806 5800 5798 5791 5787 5784 5783 5781 5779 5779 5778 5777 5777 5777 5777 5778 5782
5808 5776 5822 5834 5837 5832 5813 5822 5772 5770 5748 5750 5761 5757 5736 5781 5800 5821 5829 5828 5832 5831 5825 5822 5820 5817 5815 5811 5808 5802 5796 5790 5788 5786 5784 5781 5780 5779 5778 5776 5775 5777 5779 5782
5825 5800 5797 5822 5812 5802 5805 5792 5801 5789 5777 5749 5744 5764 5813 5805 5819 5821 5822 5826 5827 5828 5826 5823 5818 5817 5816 5815 5809 5804 5798 5793 5789 5788 5786 5782 5781 5781 5779 5777 5775 5775 5777 5778
5823 5801 5774 5794 5830 5844 5829 5813 5802 5768 5756 5776 5768 5776 5833 5809 5818 5810 5806 5826 5830 5829 5825 5822 5821 5820 5815 5810 5807 5805 5802 5797 5793 5790 5788 5785 5781 5783 5780 5777 5777 5777 5776 5777
5802 5779 5753 5771 5802 5812 5807 5808 5800 5789 5777 5762 5744 5764 5799 5802 5806 5808 5798 5787 5823 5826 5829 5828 5820 5817 5814 5811 5808 5805 5804 5801 5797 5794 5790 5787 5783 5784 5783 5781 5779 5778 5777 5777
5810 5784 5767 5744 5770 5790 5789 5793 5796 5777 5747 5755 5754 5764 5771 5789 5796 5785 5790 5776 5822 5809 5819 5821 5819 5821 5818 5812 5809 5806 5804 5804 5800 5796 5792 5788 5788 5789 5788 5784 5781 5780 5779 5777
5795 5761 5776 5782 5791 5792 5780 5783 5787 5775 5769 5752 5769 5767 5782 5777 5789 5799 5797 5798 5810 5814 5805 5815 5816 5815 5817 5814 5810 5809 5808 5806 5804 5798 5795 5792 5791 5791 5788 5785 5783 5782 5780 5779
5792 5756 5771 5761 5786 5787 5776 5776 5784 5788 5780 5766 5770 5766 5779 5798 5807 5798 5794 5800 5814 5818 5812 5813 5816 5816 5814 5815 5813 5812 5810 5807 5806 5801 5799 5797 5793 5790 5788 5785 5783 5781 5779 5778
5761 5756 5747 5735 5767 5766 5748 5766 5775 5779 5773 5755 5747 5761 5778 5778 5784 5801 5794 5794 5792 5790 5795 5815 5814 5816 5816 5815 5817 5812 5810 5808 5805 5802 5799 5797 5793 5788 5786 5784 5780 5778 5776 5776
5751 5744 5744 5728 5746 5708 5768 5795 5792 5779 5763 5775 5773 5780 5783 5775 5790 5788 5805 5797 5792 5793 5793 5788 5824 5822 5822 5820 5816 5814 5812 5807 5802 5798 5796 5793 5789 5784 5783 5780 5777 5774 5772 5770
5762 5744 5725 5712 5717 5741 5764 5781 5777 5772 5754 5778 5766 5779 5788 5795 5789 5786 5803 5803 5802 5798 5795 5786 5812 5826 5824 5822 5821 5815 5808 5804 5799 5794 5790 5788 5786 5782 5779 5775 5772 5769 5766 5764
5757 5752 5728 5720 5703 5702 5749 5758 5782 5787 5746 5761 5769 5779 5791 5788 5756 5764 5780 5797 5803 5795 5778 5780 5804 5830 5824 5821 5820 5813 5806 5800 5792 5789 5787 5785 5780 5778 5769 5767 5766 5763 5758 5754
5720 5723 5712 5705 5702 5723 5723 5749 5775 5737 5707 5715 5759 5771 5781 5770 5770 5785 5783 5780 5760 5765 5760 5774 5786 5823 5826 5822 5814 5805 5802 5795 5793 5789 5782 5778 5773 5769 5765 5759 5755 5752 5749 5746
5706 5699 5697 5699 5699 5687 5718 5730 5708 5702 5706 5720 5704 5742 5756 5765 5768 5773 5777 5779 5784 5804 5780 5761 5759 5809 5821 5818 5807 5801 5796 5797 5792 5785 5779 5772 5767 5763 5757 5751 5745 5741 5738 5735
5680 5691 5681 5683 5679 5693 5702 5700 5708 5707 5700 5701 5698 5736 5748 5764 5757 5763 5768 5785 5784 5780 5769 5762 5752 5807 5807 5807 5803 5790 5788 5790 5785 5778 5772 5765 5758 5752 5747 5741 5736 5729 5725 5720
5686 5693 5677 5680 5686 5690 5696 5694 5701 5705 5702 5702 5710 5724 5734 5749 5754 5755 5762 5771 5778 5787 5776 5786 5796 5796 5789 5794 5792 5788 5779 5777 5774 5766 5760 5755 5749 5743 5738 5732 5726 5718 5712 5708
5672 5676 5669 5667 5674 5678 5678 5679 5686 5690 5694 5697 5705 5713 5725 5739 5744 5748 5754 5754 5789 5788 5787 5786 5787 5785 5785 5786 5780 5774 5769 5767 5759 5754 5749 5745 5740 5737 5728 5721 5715 5710 5703 5700
5668 5657 5647 5641 5654 5655 5660 5668 5675 5679 5683 5690 5696 5703 5718 5727 5734 5738 5743 5761 5775 5776 5781 5779 5778 5777 5773 5771 5765 5761 5759 5756 5749 5744 5740 5736 5733 5729 5723 5713 5704 5698 5694 5686